When you browse on this site, cookies collect data to enhance your experience and personalize the content and advertising you see.
Visit our Privacy Policy to learn more. By continuing to use the site, you agree to this use of cookies and data.
  • In Hungary
  • List of Countries
  • For 7 days
  • Water Temperature
  • Weather Map
  • News
  • Weather Widgets
  • user-avatar
    Login

    Hourly Weather Urrao

    Today, 16 December, Monday

    Time Temperature Precipitation Wind Pressure Humidity
    00:00 +14°C° 0.1 mm 0 mps 607 mmHg 98%
    01:00 +14°C° 0 mm 0 mps 607 mmHg 99%
    02:00 +14°C° 0.1 mm 0 mps 607 mmHg 98%
    03:00 +14°C° 0.1 mm 0 mps 607 mmHg 98%
    04:00 +14°C° 0.1 mm 0 mps 606 mmHg 97%
    05:00 +14°C° 0 mm 0 mps 607 mmHg 97%
    06:00 +14°C° 0 mm 0 mps 607 mmHg 97%
    07:00 +15°C° 0 mm 0 mps 607 mmHg 96%
    08:00 +16°C° 0.1 mm 0 mps 608 mmHg 91%
    09:00 +20°C° 0.1 mm 1 mps 609 mmHg 86%
    10:00 +21°C° 0.1 mm 1 mps 610 mmHg 82%
    11:00 +21°C° 1.3 mm 1 mps 609 mmHg 83%
    12:00 +22°C° 1.3 mm 1 mps 609 mmHg 83%
    13:00 +20°C° 1.3 mm 0 mps 608 mmHg 84%
    14:00 +22°C° 1.1 mm 1 mps 607 mmHg 85%
    15:00 +21°C° 1.1 mm 1 mps 607 mmHg 86%
    16:00 +21°C° 1.1 mm 1 mps 606 mmHg 87%
    17:00 +20°C° 0.9 mm 1 mps 606 mmHg 90%
    18:00 +19°C° 0.9 mm 1 mps 606 mmHg 94%
    19:00 +16°C° 0.9 mm 1 mps 606 mmHg 98%
    20:00 +16°C° 0.2 mm 1 mps 606 mmHg 97%
    21:00 +15°C° 0.2 mm 0 mps 607 mmHg 97%
    22:00 +15°C° 0.2 mm 0 mps 607 mmHg 97%
    23:00 +15°C° 0 mm 0 mps 607 mmHg 97%

    Tomorrow, 17 December, Tuesday

    Time Temperature Precipitation Wind Pressure Humidity
    00:00 +15°C° 0 mm 0 mps 607 mmHg 97%
    01:00 +15°C° 0 mm 0 mps 606 mmHg 97%
    02:00 +14°C° 0 mm 0 mps 606 mmHg 97%
    03:00 +14°C° 0 mm 0 mps 606 mmHg 97%
    04:00 +14°C° 0 mm 0 mps 606 mmHg 97%
    05:00 +14°C° 0 mm 0 mps 606 mmHg 96%
    06:00 +14°C° 0 mm 0 mps 606 mmHg 96%
    07:00 +15°C° 0 mm 0 mps 606 mmHg 96%
    08:00 +16°C° 0.1 mm 0 mps 607 mmHg 89%
    09:00 +20°C° 0.1 mm 1 mps 608 mmHg 83%
    10:00 +22°C° 0.1 mm 1 mps 609 mmHg 77%
    11:00 +22°C° 1 mm 1 mps 608 mmHg 81%
    12:00 +21°C° 1 mm 1 mps 608 mmHg 84%
    13:00 +19°C° 1 mm 0 mps 607 mmHg 88%
    14:00 +21°C° 1.3 mm 1 mps 606 mmHg 89%
    15:00 +21°C° 1.3 mm 1 mps 606 mmHg 90%
    16:00 +20°C° 1.3 mm 1 mps 605 mmHg 92%
    17:00 +19°C° 0.8 mm 1 mps 605 mmHg 94%
    18:00 +18°C° 0.8 mm 1 mps 605 mmHg 96%
    19:00 +16°C° 0.8 mm 1 mps 605 mmHg 98%
    20:00 +15°C° 0.2 mm 0 mps 606 mmHg 98%
    21:00 +15°C° 0.2 mm 0 mps 606 mmHg 98%
    22:00 +15°C° 0.2 mm 0 mps 607 mmHg 98%
    23:00 +15°C° 0.5 mm 0 mps 606 mmHg 98%

    Day after tomorrow, 18 December, Wednesday

    Time Temperature Precipitation Wind Pressure Humidity
    00:00 +15°C° 0.5 mm 0 mps 606 mmHg 98%
    01:00 +15°C° 0.5 mm 0 mps 606 mmHg 98%
    02:00 +15°C° 1.6 mm 0 mps 606 mmHg 98%
    03:00 +15°C° 1.6 mm 0 mps 606 mmHg 98%
    04:00 +15°C° 1.6 mm 0 mps 605 mmHg 98%
    05:00 +15°C° 0.9 mm 0 mps 606 mmHg 98%
    06:00 +15°C° 0.9 mm 0 mps 606 mmHg 98%
    07:00 +15°C° 0.9 mm 0 mps 607 mmHg 98%
    08:00 +16°C° 0.3 mm 0 mps 607 mmHg 95%
    09:00 +17°C° 0.3 mm 0 mps 608 mmHg 92%
    10:00 +20°C° 0.3 mm 1 mps 609 mmHg 90%
    11:00 +20°C° 0.7 mm 1 mps 608 mmHg 90%
    12:00 +20°C° 0.7 mm 1 mps 608 mmHg 90%
    13:00 +20°C° 0.7 mm 1 mps 607 mmHg 89%
    14:00 +20°C° 0.6 mm 1 mps 607 mmHg 91%
    15:00 +19°C° 0.6 mm 1 mps 606 mmHg 93%
    16:00 +19°C° 0.6 mm 1 mps 606 mmHg 95%
    17:00 +19°C° 0.6 mm 1 mps 606 mmHg 96%
    18:00 +18°C° 0.6 mm 1 mps 606 mmHg 97%
    19:00 +16°C° 0.6 mm 1 mps 606 mmHg 98%
    20:00 +15°C° 0.1 mm 0 mps 607 mmHg 98%
    21:00 +15°C° 0.1 mm 0 mps 607 mmHg 97%
    22:00 +15°C° 0.1 mm 0 mps 607 mmHg 97%
    23:00 +14°C° 0 mm 0 mps 607 mmHg 97%

    19 December, Thursday

    Time Temperature Precipitation Wind Pressure Humidity
    00:00 +14°C° 0 mm 0 mps 606 mmHg 97%
    01:00 +14°C° 0 mm 0 mps 606 mmHg 97%
    02:00 +13°C° 0 mm 0 mps 605 mmHg 97%
    03:00 +13°C° 0 mm 0 mps 605 mmHg 96%
    04:00 +13°C° 0 mm 0 mps 605 mmHg 96%
    05:00 +13°C° 0 mm 0 mps 605 mmHg 96%
    06:00 +14°C° 0 mm 0 mps 606 mmHg 95%
    07:00 +14°C° 0 mm 0 mps 607 mmHg 94%
    08:00 +18°C° 0.1 mm 1 mps 608 mmHg 89%
    09:00 +20°C° 0.1 mm 1 mps 609 mmHg 83%
    10:00 +22°C° 0.1 mm 1 mps 610 mmHg 77%
    11:00 +21°C° 0.9 mm 1 mps 609 mmHg 81%
    12:00 +21°C° 0.9 mm 1 mps 608 mmHg 85%
    13:00 +21°C° 0.9 mm 1 mps 608 mmHg 89%
    14:00 +21°C° 0.8 mm 1 mps 607 mmHg 90%
    15:00 +20°C° 0.8 mm 1 mps 607 mmHg 91%
    16:00 +20°C° 0.8 mm 1 mps 606 mmHg 92%
    17:00 +19°C° 0.5 mm 1 mps 606 mmHg 94%
    18:00 +18°C° 0.5 mm 1 mps 607 mmHg 96%
    19:00 +16°C° 0.5 mm 1 mps 607 mmHg 98%
    20:00 +15°C° 0.1 mm 0 mps 607 mmHg 98%
    21:00 +15°C° 0.1 mm 0 mps 607 mmHg 97%
    22:00 +15°C° 0.1 mm 0 mps 608 mmHg 97%
    23:00 +15°C° 0.1 mm 0 mps 607 mmHg 97%

    20 December, Friday

    Time Temperature Precipitation Wind Pressure Humidity
    00:00 +14°C° 0.1 mm 0 mps 607 mmHg 97%
    01:00 +14°C° 0.1 mm 0 mps 607 mmHg 97%
    02:00 +14°C° 0.1 mm 0 mps 606 mmHg 97%
    03:00 +14°C° 0.1 mm 0 mps 606 mmHg 97%
    04:00 +14°C° 0.1 mm 0 mps 606 mmHg 97%
    05:00 +14°C° 0 mm 0 mps 606 mmHg 97%
    06:00 +14°C° 0 mm 0 mps 607 mmHg 96%
    07:00 +15°C° 0 mm 0 mps 607 mmHg 96%
    08:00 +16°C° 0.2 mm 0 mps 608 mmHg 92%
    09:00 +19°C° 0.2 mm 1 mps 609 mmHg 89%
    10:00 +21°C° 0.2 mm 1 mps 609 mmHg 85%
    11:00 +21°C° 0.7 mm 1 mps 609 mmHg 84%
    12:00 +21°C° 0.7 mm 1 mps 608 mmHg 83%
    13:00 +20°C° 0.7 mm 0 mps 608 mmHg 82%
    14:00 +19°C° 1.1 mm 0 mps 607 mmHg 86%
    15:00 +19°C° 1.1 mm 0 mps 607 mmHg 89%
    16:00 +20°C° 1.1 mm 1 mps 606 mmHg 92%
    17:00 +19°C° 0.8 mm 1 mps 606 mmHg 94%
    18:00 +18°C° 0.8 mm 1 mps 606 mmHg 96%
    19:00 +18°C° 0.8 mm 1 mps 606 mmHg 98%
    20:00 +15°C° 0.2 mm 0 mps 607 mmHg 98%
    21:00 +15°C° 0.2 mm 0 mps 607 mmHg 98%
    22:00 +15°C° 0.2 mm 0 mps 608 mmHg 98%
    23:00 +15°C° 0.4 mm 0 mps 607 mmHg 98%

    21 December, Saturday

    Time Temperature Precipitation Wind Pressure Humidity
    00:00 +15°C° 0.4 mm 0 mps 607 mmHg 98%
    01:00 +15°C° 0.4 mm 0 mps 607 mmHg 98%
    02:00 +15°C° 1.1 mm 0 mps 607 mmHg 98%
    03:00 +14°C° 1.1 mm 0 mps 606 mmHg 98%
    04:00 +14°C° 1.1 mm 0 mps 606 mmHg 98%
    05:00 +14°C° 1.5 mm 0 mps 606 mmHg 98%
    06:00 +15°C° 1.5 mm 0 mps 607 mmHg 98%
    07:00 +15°C° 1.5 mm 0 mps 607 mmHg 97%
    08:00 +16°C° 0.2 mm 0 mps 608 mmHg 94%
    09:00 +19°C° 0.2 mm 1 mps 608 mmHg 91%
    10:00 +20°C° 0.2 mm 1 mps 609 mmHg 87%
    11:00 +20°C° 0.5 mm 1 mps 608 mmHg 85%
    12:00 +21°C° 0.5 mm 1 mps 608 mmHg 83%
    13:00 +21°C° 0.5 mm 1 mps 608 mmHg 81%
    14:00 +21°C° 0.4 mm 1 mps 607 mmHg 84%
    15:00 +20°C° 0.4 mm 1 mps 606 mmHg 87%
    16:00 +20°C° 0.4 mm 1 mps 606 mmHg 90%
    17:00 +19°C° 0.3 mm 1 mps 606 mmHg 92%
    18:00 +18°C° 0.3 mm 1 mps 606 mmHg 95%
    19:00 +16°C° 0.3 mm 1 mps 606 mmHg 97%
    20:00 +15°C° 0.1 mm 0 mps 606 mmHg 97%
    21:00 +15°C° 0.1 mm 0 mps 607 mmHg 97%
    22:00 +15°C° 0.1 mm 0 mps 607 mmHg 97%
    23:00 +14°C° 0 mm 0 mps 607 mmHg 97%
    Show more